Regional Weather Roundup
Issued by NWS

Home | Current Version | Previous Version | Text Only | Print | Product List | Glossary On
Versions: 1 2 3 4 5 6 7 8 9 10 11 12 13 14 15 16 17 18 19 20 21 22 23 24 25 26 27
000
ASUS45 KCYS 220110
RWRWY

WYOMING REGIONAL WEATHER ROUNDUP
NATIONAL WEATHER SERVICE CHEYENNE WY
700 PM MDT SAT APR 21 2018

NOTE:  "FAIR" INDICATES FEW OR NO CLOUDS BELOW 12,000 FEET
WITH NO SIGNIFICANT WEATHER AND/OR OBSTRUCTIONS TO VISIBILITY.

WYZ001-220200-
YELLOWSTONE NATIONAL PARK

CITY           SKY/WX    TMP DP  RH WIND       PRES   REMARKS
LK YELLOWSTONE   N/A     50  22  33 VRB7      30.20S
W YELLOWSTONE  NOT AVBL

$$
WYZ002>013-054>058-071-098>099-220200-
NORTHERN WYOMING

CITY           SKY/WX    TMP DP  RH WIND       PRES   REMARKS
JACKSON        FAIR      59  23  25 SW10      30.14S
CODY           FAIR      67  25  20 W12       30.01S
GREYBULL       NOT AVBL
WORLAND        FAIR      68  25  19 E3        29.97F
SHERIDAN       FAIR      67  36  31 CALM      29.97S
BUFFALO        FAIR      62  35  36 SE12      30.03S
GILLETTE       FAIR      56  37  49 S14       30.04F
HULETT         FAIR      55  34  44 S14       30.06F
NEWCASTLE      FAIR      50  34  53 SE21G26   30.10F

$$
WYZ014>020-022>026-101>103-220200-
CENTRAL WYOMING

CITY           SKY/WX    TMP DP  RH WIND       PRES   REMARKS
BIG PINEY      FAIR      59  23  25 N14       30.16S
PINEDALE       FAIR      55  23  28 NW20G31   30.16S
DUBOIS         FAIR      54  23  30 NW15      30.13S
LANDER         FAIR      64  27  24 E6        30.02R
RIVERTON       FAIR      63  25  23 E5        30.03S
CASPER         FAIR      59  36  42 SE7       30.04F
DOUGLAS          N/A     51  36  56 SE18      30.09S

$$
WYZ021-027>030-104>119-220200-
SOUTHERN WYOMING

CITY           SKY/WX    TMP DP  RH WIND       PRES   REMARKS
EVANSTON       FAIR      58  23  26 NW8       30.21R
KEMMERER       FAIR      55  23  28 W20G26    30.19S
FORT BRIDGER   FAIR      60  17  18 NW17G25   30.21R
ROCK SPRINGS   FAIR      63  14  15 NW17      30.10R
DIXON          FAIR      55  34  45 S13       30.16S
RAWLINS          N/A    N/A N/A N/A MISG      30.10S
SARATOGA       FAIR      55  27  33 NW6       30.12S
LARAMIE        FAIR      41  35  79 SE5       30.12S
CHEYENNE       CLOUDY    38  35  89 S13       30.15S WCI  30
TORRINGTON     FAIR      44  38  79 SE9       30.14F
PINE BLUFFS    MOCLDY    43  32  65 MISG      30.16S

$$




USA.gov is the U.S. government's official web portal to all federal, state and local government web resources and services.